Date String (YYYY-MM-DD hh:mm:ss) UTC,Instrument flags,absolute air pressure of the measurement (hPa),sample flow rate (lpm),inlet stack bypass flow (lpm),air temperature of the measurement (°C),ambient temperature measured by the external sensor (°C),aerosol sample conditioner tube jacket temperature (°C),OPC LED temperature (°C),internal box temperature (°C),relative humidity of the measurement (%),span deviation,mass concentration of particles derived from Lorenz-Mie calculation of OPC scattering (μg/m³),mass concentration of particles derived from Lorenz-Mie calculation of OPC scattering (μg/m³),mass concentration of particles derived from Lorenz-Mie calculation of OPC scattering (μg/m³)
DateTimeUTC,F1_M11,P_M11,Q1_M11,Q2_M11,T1_M11,T2_M11,T3_M11,T4_M11,T5_M11,U1_M11,ZSPAN_M11,X0_M11,X2_M11,X1_M11
2023-09-16 23:00:00,SystemResetWarning,0835.6,4.99,000.00,027.7,024.6,000.0,036.1,029.1,18.6,0000.0,0007.20,0004.10,0003.72
2023-09-16 23:01:00,SystemResetWarning,0835.6,5.00,000.00,027.7,025.0,000.0,036.1,029.2,18.6,0000.0,0007.12,0004.10,0003.72
2023-09-16 23:02:00,SystemResetWarning,0835.6,5.00,000.00,027.7,025.4,000.0,036.1,029.3,18.5,0000.0,0007.55,0004.10,0003.73
2023-09-16 23:03:00,SystemResetWarning,0835.6,4.99,000.00,027.7,025.7,000.0,036.1,029.4,18.8,0000.0,0007.63,0004.11,0003.74
2023-09-16 23:04:00,SystemResetWarning,0835.5,5.00,000.00,027.8,026.0,000.0,036.1,029.5,18.5,0000.0,0007.69,0004.13,0003.76
2023-09-16 23:05:00,SystemResetWarning,0835.5,5.01,000.00,027.8,026.3,000.0,036.1,029.5,18.6,0000.0,0007.68,0004.12,0003.75
2023-09-16 23:06:00,SystemResetWarning,0835.5,5.00,000.00,027.9,026.6,000.0,036.2,029.6,19.0,0000.0,0007.61,0004.15,0003.76
2023-09-16 23:07:00,SystemResetWarning,0835.5,4.99,000.00,027.9,026.8,000.0,036.2,029.7,19.1,0000.0,0007.59,0004.15,0003.75
2023-09-16 23:08:00,SystemResetWarning,0835.6,5.01,000.00,028.0,026.9,000.0,036.2,029.8,18.9,0000.0,0007.53,0004.16,0003.75
2023-09-16 23:09:00,SystemResetWarning,0835.6,5.00,000.00,028.0,027.1,000.0,036.2,029.8,18.6,0000.0,0007.49,0004.17,0003.75
2023-09-16 23:10:00,SystemResetWarning,0835.6,4.99,000.00,028.1,026.6,000.0,036.2,029.7,18.6,0001.6,0007.45,0004.16,0003.75
2023-09-16 23:11:00,SystemResetWarning,0835.6,4.99,000.00,028.0,025.1,000.0,036.2,029.3,19.1,0001.8,0007.27,0004.11,0003.75
2023-09-16 23:12:00,SystemResetWarning,0835.5,5.01,000.00,027.9,024.8,000.0,036.1,029.3,20.0,0001.2,0007.44,0004.13,0003.76
2023-09-16 23:13:00,SystemResetWarning,0835.5,5.00,000.00,027.8,025.0,000.0,036.2,029.2,19.4,0000.7,0007.42,0004.14,0003.75
2023-09-16 23:14:00,SystemResetWarning,0835.5,5.00,000.00,027.8,025.3,000.0,036.2,029.3,19.1,-000.1,0008.19,0004.15,0003.74
2023-09-16 23:15:00,SystemResetWarning,0835.5,5.00,000.00,027.8,025.6,000.0,036.2,029.4,19.2,-000.2,0008.42,0004.13,0003.74
2023-09-16 23:16:00,SystemResetWarning,0835.5,5.00,000.00,027.9,026.0,000.0,036.2,029.5,19.2,-000.4,0008.64,0004.15,0003.74
2023-09-16 23:17:00,SystemResetWarning,0835.6,5.00,000.00,027.9,026.2,000.0,036.2,029.6,19.2,-000.6,0008.91,0004.17,0003.73
2023-09-16 23:18:00,SystemResetWarning,0835.6,5.00,000.00,027.9,026.5,000.0,036.2,029.7,19.2,-000.7,0008.96,0004.18,0003.73
2023-09-16 23:19:00,SystemResetWarning,0835.5,5.00,000.00,028.0,026.7,000.0,036.2,029.7,19.6,-000.5,0008.92,0004.17,0003.74
2023-09-16 23:20:00,SystemResetWarning,0835.6,5.01,000.00,028.0,026.9,000.0,036.2,029.8,19.8,-000.9,0008.89,0004.18,0003.74
2023-09-16 23:21:00,SystemResetWarning,0835.6,5.00,000.00,028.1,027.0,000.0,036.3,029.9,20.0,-000.5,0008.86,0004.17,0003.74
2023-09-16 23:22:00,SystemResetWarning,0835.5,4.98,000.00,028.1,026.1,000.0,036.3,029.6,19.8,0000.0,0008.85,0004.16,0003.74
2023-09-16 23:23:00,SystemResetWarning,0835.5,5.00,000.00,028.0,025.0,000.0,036.2,029.3,20.2,0000.0,0008.83,0004.16,0003.74
2023-09-16 23:24:00,SystemResetWarning,0835.5,5.01,000.00,027.9,024.9,000.0,036.2,029.3,20.2,0000.1,0008.67,0004.18,0003.74
2023-09-16 23:25:00,SystemResetWarning,0835.5,5.01,000.00,027.9,025.1,000.0,036.2,029.3,19.9,0000.1,0008.02,0004.18,0003.75
2023-09-16 23:26:00,SystemResetWarning,0835.5,4.99,000.00,027.9,025.5,000.0,036.2,029.4,19.6,0000.0,0007.54,0004.15,0003.74
2023-09-16 23:27:00,SystemResetWarning,0835.5,5.00,000.00,027.9,025.8,000.0,036.2,029.5,19.2,0000.0,0007.26,0004.15,0003.75
2023-09-16 23:28:00,SystemResetWarning,0835.6,5.00,000.00,027.9,026.1,000.0,036.2,029.6,19.5,0000.0,0006.62,0004.11,0003.75
2023-09-16 23:29:00,SystemResetWarning,0835.5,5.01,000.00,027.9,026.3,000.0,036.2,029.6,19.3,0000.0,0006.33,0004.07,0003.75
2023-09-16 23:30:00,SystemResetWarning,0835.5,5.00,000.00,028.0,026.6,000.0,036.2,029.7,19.1,0000.0,0006.51,0004.06,0003.75
2023-09-16 23:31:00,SystemResetWarning,0835.5,5.00,000.00,028.0,026.8,000.0,036.3,029.8,19.2,0000.0,0007.10,0004.04,0003.75
2023-09-16 23:32:00,SystemResetWarning,0835.5,5.00,000.00,028.1,027.0,000.0,036.3,029.9,19.3,0000.0,0007.14,0004.05,0003.74
2023-09-16 23:33:00,SystemResetWarning,0835.5,5.00,000.00,028.1,027.0,000.0,036.3,029.9,19.3,0000.0,0007.10,0004.04,0003.74
2023-09-16 23:34:00,SystemResetWarning,0835.5,4.98,000.00,028.1,025.7,000.0,036.3,029.5,19.7,0000.0,0007.12,0004.04,0003.75
2023-09-16 23:35:00,SystemResetWarning,0835.5,5.01,000.00,028.0,024.9,000.0,036.2,029.4,19.7,0000.0,0007.14,0004.03,0003.74
2023-09-16 23:36:00,SystemResetWarning,0835.5,5.01,000.00,027.9,025.0,000.0,036.2,029.3,19.2,0000.0,0007.16,0004.06,0003.76
2023-09-16 23:37:00,SystemResetWarning,0835.5,4.99,000.00,027.9,025.2,000.0,036.2,029.3,19.5,0000.0,0007.25,0004.08,0003.77
2023-09-16 23:38:00,SystemResetWarning,0835.5,5.00,000.00,027.9,025.5,000.0,036.2,029.4,19.6,0000.0,0007.33,0004.11,0003.78
2023-09-16 23:39:00,SystemResetWarning,0835.5,5.01,000.00,027.9,025.9,000.0,036.2,029.5,19.8,0000.0,0007.37,0004.12,0003.78
2023-09-16 23:40:00,SystemResetWarning,0835.5,5.00,000.00,027.9,026.1,000.0,036.3,029.6,19.5,0000.0,0007.49,0004.16,0003.79
2023-09-16 23:41:00,SystemResetWarning,0835.5,5.00,000.00,028.0,026.4,000.0,036.3,029.7,19.5,0000.0,0007.39,0004.20,0003.80
2023-09-16 23:42:00,SystemResetWarning,0835.5,5.00,000.00,028.0,026.6,000.0,036.3,029.8,19.4,0000.0,0007.40,0004.22,0003.80
2023-09-16 23:43:00,SystemResetWarning,0835.5,5.01,000.00,028.1,026.8,000.0,036.3,029.9,20.1,0000.0,0007.73,0004.20,0003.79
2023-09-16 23:44:00,SystemResetWarning,0835.5,5.00,000.00,028.1,027.0,000.0,036.3,029.9,19.1,0000.0,0007.93,0004.27,0003.79
2023-09-16 23:45:00,SystemResetWarning,0835.5,4.98,000.00,028.2,026.8,000.0,036.3,029.9,18.9,0000.0,0007.98,0004.31,0003.80
2023-09-16 23:46:00,SystemResetWarning,0835.5,5.00,000.00,028.1,025.2,000.0,036.3,029.4,19.4,0000.0,0007.95,0004.31,0003.81
2023-09-16 23:47:00,SystemResetWarning,0835.5,5.00,000.00,027.9,024.0,000.0,036.2,029.0,18.9,0000.0,0007.89,0004.29,0003.80
2023-09-16 23:48:00,SystemResetWarning,0835.4,5.01,000.00,027.8,024.0,000.0,036.2,029.0,19.3,0000.3,0008.07,0004.30,0003.79
2023-09-16 23:49:00,SystemResetWarning,0835.4,5.01,000.00,027.8,024.3,000.0,036.2,029.0,19.3,0001.8,0008.10,0004.29,0003.79
2023-09-16 23:50:00,SystemResetWarning,0835.4,4.99,000.00,027.7,024.7,000.0,036.2,029.2,19.3,0001.5,0008.35,0004.29,0003.80
2023-09-16 23:51:00,SystemResetWarning,0835.4,4.99,000.00,027.7,025.2,000.0,036.2,029.3,19.3,0000.4,0008.28,0004.27,0003.81
2023-09-16 23:52:00,SystemResetWarning,0835.4,5.00,000.00,027.8,025.5,000.0,036.2,029.4,20.0,0001.5,0008.27,0004.26,0003.82
2023-09-16 23:53:00,SystemResetWarning,0835.3,5.00,000.00,027.8,025.9,000.0,036.2,029.4,19.4,0001.9,0008.14,0004.28,0003.83
2023-09-16 23:54:00,SystemResetWarning,0835.4,5.01,000.00,027.8,026.1,000.0,036.2,029.5,20.0,0000.2,0007.93,0004.31,0003.86
2023-09-16 23:55:00,SystemResetWarning,0835.4,5.00,000.00,027.9,026.4,000.0,036.2,029.6,20.0,0000.0,0007.83,0004.28,0003.89
2023-09-16 23:56:00,SystemResetWarning,0835.3,5.00,000.00,027.9,026.6,000.0,036.2,029.7,20.2,0000.0,0007.85,0004.31,0003.91
2023-09-16 23:57:00,SystemResetWarning,0835.3,5.00,000.00,028.0,026.8,000.0,036.2,029.7,20.4,0000.0,0007.83,0004.32,0003.92
2023-09-16 23:58:00,SystemResetWarning,0835.3,5.00,000.00,028.0,026.9,000.0,036.2,029.8,20.5,0000.0,0007.81,0004.33,0003.93
2023-09-16 23:59:00,SystemResetWarning,0835.3,5.00,000.00,028.1,027.1,000.0,036.3,029.9,20.2,0000.0,0007.65,0004.34,0003.95
